User: anonymous   Login
Location: Unspecified
(0.0000°N, 0.0000°E)
Time: 20:17:09
(UTC+00:00)
Language:

A-11 Canister half - Orbit

View from above orbital plane
View from above orbital plane
View from above satellite
View from above satellite

Ground track
Ground track

The orbit data is extracted from the following two-line orbital elements,

1    51U 60009C   16341.48539795 -.00000065 +00000-0 +18255-3 0  9992
2    51 047.2153 015.1406 0107294 289.2488 069.6718 12.18267655506956
Epoch (UTC): 06 December 2016 11:38:58
Eccentricity: 0.0107294
inclination: 47.2153°
perigee height: 1514 km
apogee height: 1685 km
right ascension of ascending node: 15.1406°
argument of perigee: 289.2488°
revolutions per day: 12.18267655
mean anomaly at epoch: 69.6718°
orbit number at epoch: 50695

The dashed part of the orbit path shows where the satellite is in the earth's shadow,  

DLR